Tracking 27428 objects as of 31-May-2023
HD Live streaming from Space Station
objects crossing your sky now

COSMOS 1741 DEB *

Track COSMOS 1741 DEB * now!
10-day predictions


NORAD ID: 18681
Int'l Code: 1986-030G
Perigee: 738.0 km
Apogee: 764.9 km
Inclination: 74.0 °
Period: 99.7 minutes
Semi major axis: 7122 km
RCS: 0.0116 m2 (small)
Launch date: April 17, 1986
Source: Commonwealth of Independent States (former USSR) (CIS)
Launch site: PLESETSK MISSILE AND SPACE COMPLEX (PKMTR)

Note: This is SATELLITE DEBRIS
Your satellite tracking list
Your tracking list is empty




NASA's NSSDC Master Catalog

Two Line Element Set (TLE):
1 18681U 87049D   23150.71403071  .00001019  00000-0  30343-3 0  9993
2 18681  74.0292 159.2823 0018847 292.6108 191.0274 14.44301088884485
Source of the keplerian elements: AFSPC